RH
29 29 29 27 26 25 22 21 21 20 18 18 17 18 15 8 11 20 24 18 28 20 19 25 28 34 34 39 48 50 66 80 65 62 60 72 70 68 69 67 63 64 66 55 55
29 28 27 25 22 19 21 21 20 19 17 18 17 17 11 8 15 20 13 23 29 19 27 26 24 27 30 35 45 57 59 43 46 58 69 90 77 81 88 88 65 67 69 66 60
28 26 24 19 16 17 18 19 18 12 10 12 11 17 10 9 19 19 13 25 30 27 33 28 35 34 33 30 33 42 50 46 40 45 69 84 83 78 77 90 82 68 74 77 60
25 24 21 17 15 13 12 11 9 8 8 9 9 10 9 15 15 15 14 17 20 21 26 31 32 30 37 39 37 36 33 29 32 46 49 66 58 68 67 73 90 86 83 80 81
26 24 19 16 14 13 11 9 8 8 8 9 9 9 13 17 18 12 12 15 18 22 23 25 29 32 35 34 37 40 40 35 28 31 37 38 48 54 62 65 80 93 92 83 63
26 21 18 16 14 12 11 9 9 8 8 9 9 9 16 17 14 13 14 16 18 19 21 24 27 35 35 39 41 40 46 43 40 34 30 37 37 45 53 69 71 85 96 90 77
23 20 17 15 14 12 10 9 9 8 9 9 9 15 17 20 15 15 16 19 17 18 22 23 31 43 47 51 48 51 55 52 47 45 41 40 34 40 34 51 62 68 86 90 79
21 19 17 16 13 11 10 10 9 9 10 10 10 17 21 15 13 15 14 14 17 21 25 27 36 46 60 62 60 66 71 73 51 62 57 59 44 37 36 47 64 63 75 85 86
21 19 17 15 12 11 10 10 10 10 10 10 18 18 20 14 16 14 14 18 18 20 25 32 47 59 63 67 68 68 84 81 66 66 65 63 58 36 37 41 49 58 71 86 84
21 19 17 14 12 11 10 11 12 13 14 15 14 22 20 14 13 14 19 18 19 23 30 44 61 70 71 78 73 63 78 84 70 63 61 61 57 43 48 63 51 62 76 79 91
20 19 16 14 13 12 11 13 18 19 15 16 14 15 16 14 15 20 17 15 21 26 35 48 69 75 67 73 73 65 68 72 65 63 64 61 62 49 49 59 48 51 71 81 80
20 20 17 14 13 12 12 15 16 17 19 15 16 17 16 16 19 19 17 20 21 29 39 56 75 78 68 73 78 82 77 69 64 68 67 64 61 48 50 44 41 50 62 74 81
20 20 17 15 14 14 14 15 15 17 25 18 17 18 16 19 20 18 20 19 24 32 44 63 67 74 73 80 87 89 90 76 73 65 69 67 57 52 50 46 48 43 44 68 94
21 20 18 16 17 15 17 16 17 19 24 19 20 20 19 15 24 17 18 25 29 33 43 56 62 68 75 85 89 93 79 80 89 85 73 68 87 60 49 37 41 51 76 84 89
23 21 19 18 17 18 17 17 19 21 39 18 21 18 21 19 19 21 24 25 30 32 49 57 61 68 79 88 86 92 84 86 89 93 84 60 70 59 71 65 81 60 64 78 88
25 23 22 21 21 18 18 18 22 28 31 19 20 23 23 20 20 21 27 33 30 28 35 48 60 74 81 84 80 91 92 86 92 95 92 71 82 77 94 87 69 64 66 78 87
28 27 25 23 23 20 19 24 30 25 19 22 24 26 25 21 22 22 27 34 38 42 30 32 52 72 79 80 76 93 89 86 94 93 70 62 75 85 93 94 78 72 72 78 88
31 31 29 27 26 22 23 27 33 25 27 28 31 30 28 27 24 26 26 34 38 43 45 42 50 65 81 90 89 96 97 96 86 89 73 73 85 81 82 94 87 76 73 84 88
35 34 37 32 30 26 29 34 29 30 34 37 35 30 26 26 30 31 27 36 42 47 55 52 37 44 77 84 84 84 93 93 90 75 91 93 93 76 77 85 84 76 81 86 87
39 38 42 38 35 32 34 35 35 34 38 41 45 36 40 32 35 36 34 36 40 41 54 51 56 35 46 77 79 88 90 93 95 94 81 91 83 78 77 84 84 77 82 91 93
46 45 46 43 42 40 45 45 41 41 41 44 43 43 41 43 40 36 36 32 34 35 42 53 53 37 38 63 84 82 86 91 95 93 90 90 89 91 93 88 87 80 84 90 94
54 54 52 50 50 49 53 53 50 47 47 47 46 44 44 47 45 41 35 33 30 32 47 50 46 51 41 55 61 70 89 94 92 92 93 91 87 94 95 90 89 83 82 89 96
62 60 59 57 62 60 59 56 54 55 53 50 50 47 46 51 54 43 35 31 34 36 52 53 42 40 27 56 57 58 78 88 93 96 93 95 84 77 90 92 85 90 88 86 95
70 69 66 65 68 69 71 64 60 61 59 53 52 50 52 53 49 47 44 41 38 40 51 51 45 48 50 46 60 64 66 79 90 92 94 92 91 83 92 96 87 83 88 90 89
77 78 79 76 75 75 76 72 67 69 65 61 57 53 55 59 54 47 39 46 45 43 52 54 43 35 32 45 58 60 63 71 90 95 95 94 93 91 95 97 97 87 85 86 91
84 84 83 85 85 80 80 78 74 73 74 63 62 54 55 58 58 57 53 47 47 45 53 56 41 38 43 54 56 64 55 71 90 93 94 96 96 92 95 94 96 97 89 87 90
88 87 87 87 85 85 82 82 84 79 73 65 64 63 59 55 52 50 45 44 51 55 53 62 51 45 42 58 57 70 76 62 65 83 95 94 96 96 90 92 93 96 97 93 89